This is the latest recevied weather packets stored in our database for station/object WW5JC. If no packets are shown the sender has not sent any weather packets the latest 10 day(s).
| Time | Temp. | Humidity | Pressure | Rain* | Wind** | Luminosity | Snow |
|---|---|---|---|---|---|---|---|
| 1777501908 | 17.78° C | 93% | 1014.2 hPa | 0 mm | - | 171 W/m² | - |
| 1777501604 | 17.78° C | 95% | 1014.2 hPa | 0 mm | - | 175 W/m² | - |
| 1777501302 | 17.78° C | 95% | 1014.2 hPa | 0 mm | - | 199 W/m² | - |
| 1777500999 | 17.22° C | 96% | 1014.3 hPa | 0 mm | - | 152 W/m² | - |
| 1777500697 | 17.22° C | 96% | 1014.3 hPa | 0 mm | - | 146 W/m² | - |
| 1777500393 | 17.22° C | 96% | 1014.2 hPa | 0 mm | - | 176 W/m² | - |
| 1777500089 | 17.22° C | 97% | 1014.7 hPa | 0 mm | - | 197 W/m² | - |
| 1777499786 | 17.22° C | 97% | 1014.9 hPa | 0 mm | - | 155 W/m² | - |
| 1777499482 | 16.67° C | 97% | 1015.1 hPa | 0 mm | - | 155 W/m² | - |
| 1777499181 | 16.67° C | 97% | 1014.9 hPa | 0 mm | - | 129 W/m² | - |
| 1777498877 | 17.22° C | 96% | 1014.7 hPa | 0 mm | - | 109 W/m² | - |
| 1777498574 | 17.22° C | 96% | 1015.2 hPa | 0 mm | - | 113 W/m² | - |
| 1777498270 | 17.78° C | 95% | 1015.7 hPa | 0 mm | - | 126 W/m² | - |
| 1777497969 | 17.78° C | 91% | 1015.7 hPa | 0 mm | - | 37 W/m² | - |
| 1777497664 | 17.78° C | 90% | 1015.3 hPa | 0 mm | - | 44 W/m² | - |
| 1777497361 | 17.78° C | 90% | 1015.6 hPa | 0 mm | - | 50 W/m² | - |
| 1777497057 | 17.78° C | 90% | 1015.8 hPa | 0 mm | - | 31 W/m² | - |
| 1777496754 | 17.78° C | 90% | 1016.6 hPa | 0 mm | - | 13 W/m² | - |
| 1777496450 | 18.33° C | 89% | 1015.5 hPa | 0 mm | - | 33 W/m² | - |
| 1777496147 | 18.33° C | 88% | 1015.2 hPa | 0 mm | - | 48 W/m² | - |
| 1777495843 | 18.89° C | 86% | 1014.9 hPa | 0 mm | - | 91 W/m² | - |
| 1777495539 | 18.89° C | 86% | 1015.1 hPa | 0 mm | - | 106 W/m² | - |
| 1777495235 | 18.89° C | 84% | 1015.7 hPa | 0 mm | - | 63 W/m² | - |
| 1777494933 | 18.89° C | 84% | 1015.5 hPa | 0 mm | - | 97 W/m² | - |
| 1777494630 | 18.89° C | 85% | 1015.7 hPa | 0 mm | - | 126 W/m² | - |
* Rain latest hour (hover to see other rain measurements)
** Current wind speed in m/s (hover to see current wind gust speed)